loading
|

STARLINK-32304, 60738

Orbit data source: Space-Track

STARLINK-32304, 60738 is a payload satellite owned by SpaceX/Seattle (US) in LEO that was launched on Wed, 28 Aug 2024 UTC via an FALCON 9 launch vehicle from the Air Force Eastern Test Range (AFETR). Payloads include a variety of satellites, spacecraft, and rockets equipped with specific instruments for various scientific and technological missions. These include communications satellites like Starlink; space stations such as the ISS; scientific satellites like the Hubble; Earth observation satellites from companies like Planet Labs, Umbra, and HawkEye 360; GPS; miniature CubeSats for education and research; and military/defense satellites.

Loading next visibility...
Loading greatness...
STARLINK-32304 details
Identifier
60738, 2024-152U
Orbit
LEO
Last TLE update8 hours ago
Origin
Flag of USSpaceX/Seattle (US)
ManufacturerSpaceX/Seattle
Mission statusOperational
MissionUnknown
Bus & MotorSTARLINK V2M, Unknown motor
Mass750 kg wet, ~700 kg dry
Launch date (UTC)
2024-08-28 (3 weeks ago)
Launch vehicle
FALCON 9
Launch site
Air Force Eastern Test Range (AFETR)
Object type
Payload
Rocket body
Debris
Radar Cross SectionLarge (>1 m²)

Expand to show TLE details & history

TLE from 8 hours ago
0 STARLINK-32304
1 60738U 24152U   24261.58335648 -.01766720  00000-0 -26958-1 0  9997
2 60738  53.1588 249.5274 0000879  80.7189 186.8088 15.57010125  4455
Epoch: 2024-09-17T14:00Z
Definitive object data (Epoch: 2024-09-17T14:00:01.999Z)
Latitude-53.24152°
Longitude-51.58787°
Altitude415.41 km
Speed7.661 km/s
True Right ascension10h 21m 39s
True Declination-53° 04' 05"
Sunlit
Object was in daylight at TLE epoch
Predictive object data (real-time)
Latitude-52.94492°
Longitude-58.36909°
Altitude418.95 km
Speed7.659 km/s
Apparent Right ascension05h 43m 08s
Apparent Declination-61° 31' 25"
Sunlit
Object is in daylight
Predictive observer data (real-time)
Local Sidereal Time14:30:20
Azimuth217.083° SW
Elevation-53.88°
Doppler factor1
Orbital elements
Apogee397.171 km
Perigee395.98 km
Semi-major axis6,774.712 km
Eccentricity0.0000879
Inclination53.1588°
RAAN249.5274°
Arg. of periapsis80.7189°
True anomaly186.80761°
Mean anomaly186.8088°
Eccentric anomaly186.8082°
Mean motion3.89231 °/min
BSTAR-0.026958
Period92.49 mins
No data available

STARLINK-32304 Visibility forecast

Observer location: 39.9160978°, -105.1181434

STARLINK-32304 is not visible in the next 10 days
Span
Click to sort rows by Start time (UTC) header in descending order
Start Az.
Max El. time (UTC)
Max El. Az.
Max El.
End time (UTC)
End Az.